Change the Weather History Date:

Sunday, February 10, 2013

  Actual Average Record
Temperature  
Mean Temperature 22 °F 25 °F  
Max Temperature 30 °F 39 °F 60 °F (2015)
Min Temperature 14 °F 12 °F -7 °F (2012)
Degree Days  
Heating Degree Days 43 40  
Month to date heating degree days 314 403  
Since 1 July heating degree days 4441 4680  
Cooling Degree Days 0 0  
Month to date cooling degree days 0 0  
Year to date cooling degree days 0 0  
Moisture  
Dew Point 20 °F    
Average Humidity 75    
Maximum Humidity 88    
Minimum Humidity 62    
Precipitation  
Precipitation T in 0.02 in 0.02 in (2015)
Month to date precipitation 0.01 0.18  
Year to date precipitation 0.74 0.50  
Sea Level Pressure  
Sea Level Pressure 29.75 in    
Wind  
Wind Speed 17 mph (NNW)    
Max Wind Speed 31 mph    
Max Gust Speed 45 mph    
Visibility 6 miles    
Events Snow    
T = Trace of Precipitation, MM = Missing Value Source: NWS Daily Summary

Daily Weather History Graph

Daily Weather History Graph

Search for Another Location

Airport or City:

Trip Planner

Search our weather history database for the weather conditions in past years. The results will help you decide how hot, cold, wet, or windy it might be!

Date:

Astronomy

Feb. 10, 2013 Rise Set
Actual Time 6:54 AM MST 5:15 PM MST
Civil Twilight 6:24 AM MST 5:44 PM MST
Nautical Twilight 5:51 AM MST 6:18 PM MST
Astronomical Twilight 5:18 AM MST 6:51 PM MST
Moon 6:43 AM MST (2/10) 6:11 PM MST (2/10)
Length of Visible Light 11h 20m
Length of Day
10h 21m
New Moon, 0% of the Moon is Illuminated
Feb 10
New Moon
Feb 17
First Quarter
Feb 25
Full
Mar 4
Last Quarter
Mar 11
New

Hourly Weather History & Observations

Time (MST) Temp. Windchill Dew Point Humidity Pressure Visibility Wind Dir Wind Speed Gust Speed Precip Events Conditions
12:20 AM 23.0 °F 11.7 °F 19.4 °F 86% 29.58 in 6.0 mi North 11.5 mph 18.4 mph 0.00 in Snow Light Snow
12:48 AM 23.0 °F 10.6 °F 19.4 °F 86% 29.58 in 6.0 mi North 13.8 mph - 0.00 in Snow Light Snow
12:52 AM 23.0 °F 11.7 °F 19.0 °F 85% 29.68 in 6.0 mi North 11.5 mph - 0.00 in Snow Light Snow
1:52 AM 24.1 °F 13.7 °F 19.9 °F 84% 29.67 in 5.0 mi North 10.4 mph - 0.00 in Snow Light Snow
2:31 AM 24.8 °F 11.5 °F 19.4 °F 80% 29.57 in 4.0 mi North 17.3 mph 27.6 mph 0.00 in Snow Light Snow
2:52 AM 25.0 °F 13.1 °F 19.9 °F 81% 29.67 in 4.0 mi North 13.8 mph 24.2 mph 0.00 in Snow Light Snow
3:17 AM 24.8 °F 15.3 °F 21.2 °F 86% 29.55 in 1.8 mi NNW 9.2 mph 20.7 mph 0.00 in Snow Light Snow
3:35 AM 24.8 °F 12.4 °F 21.2 °F 86% 29.55 in 2.5 mi NNW 15.0 mph 23.0 mph 0.00 in Snow Light Snow
3:39 AM 24.8 °F 12.9 °F 21.2 °F 86% 29.55 in 3.0 mi NNW 13.8 mph 23.0 mph 0.00 in Snow Light Snow
3:44 AM 24.8 °F 11.9 °F 21.2 °F 86% 29.56 in 5.0 mi NNW 16.1 mph 23.0 mph 0.00 in Snow Light Snow
3:52 AM 25.0 °F 13.6 °F 19.9 °F 81% 29.66 in 8.0 mi NNW 12.7 mph 23.0 mph 0.00 in Snow Light Snow
4:45 AM 26.6 °F 14.7 °F 19.4 °F 74% 29.56 in 2.5 mi NNW 15.0 mph 26.5 mph 0.00 in Snow Light Snow
4:52 AM 26.1 °F 14.5 °F 19.9 °F 78% 29.66 in 3.0 mi NNW 13.8 mph 26.5 mph 0.00 in Snow Light Snow
5:52 AM 27.0 °F 12.8 °F 19.0 °F 72% 29.68 in 7.0 mi NNW 21.9 mph 31.1 mph 0.00 in Snow Light Snow
6:52 AM 28.0 °F 16.5 °F 19.9 °F 72% 29.69 in 10.0 mi NNW 15.0 mph 27.6 mph 0.00 in   Overcast
7:08 AM 28.4 °F 14.4 °F 21.2 °F 74% 29.60 in 9.0 mi NNW 23.0 mph 31.1 mph N/A   Overcast
7:32 AM 28.4 °F 15.8 °F 23.0 °F 80% 29.61 in 10.0 mi NNW 18.4 mph 27.6 mph 0.00 in   Overcast
7:52 AM 28.0 °F 15.7 °F 23.0 °F 81% 29.72 in 7.0 mi NNW 17.3 mph 32.2 mph 0.00 in   Overcast
8:52 AM 28.0 °F 13.9 °F 23.0 °F 81% 29.75 in 6.0 mi NNW 23.0 mph 34.5 mph 0.00 in   Overcast
9:52 AM 28.9 °F 15.8 °F 24.1 °F 82% 29.76 in 2.5 mi NNW 20.7 mph 33.4 mph 0.00 in Snow Light Snow
10:13 AM 28.4 °F 15.4 °F 24.8 °F 86% 29.68 in 1.5 mi NNW 19.6 mph 31.1 mph 0.00 in Snow Light Snow
10:52 AM 28.9 °F 14.5 °F 24.1 °F 82% 29.81 in 2.0 mi NNW 25.3 mph 38.0 mph 0.00 in Snow Light Snow
11:00 AM 28.4 °F 14.7 °F 24.8 °F 86% 29.70 in 2.0 mi NNW 21.9 mph 35.7 mph 0.00 in Snow Light Snow
11:08 AM 28.4 °F 15.1 °F 24.8 °F 86% 29.70 in 1.8 mi NNW 20.7 mph 38.0 mph 0.00 in Snow Light Snow
11:19 AM 28.4 °F 13.8 °F 23.0 °F 80% 29.70 in 2.0 mi NNW 25.3 mph 36.8 mph 0.00 in Snow Light Snow
11:29 AM 28.4 °F 13.3 °F 23.0 °F 80% 29.71 in 4.0 mi NNW 27.6 mph 41.4 mph 0.00 in Snow Light Snow
11:49 AM 28.4 °F 13.8 °F 23.0 °F 80% 29.71 in 2.0 mi NNW 25.3 mph 33.4 mph 0.00 in Snow Light Snow
11:52 AM 28.9 °F 13.7 °F 23.0 °F 78% 29.81 in 2.0 mi NNW 28.8 mph 39.1 mph 0.00 in Snow Light Snow
11:58 AM 28.4 °F 14.1 °F 23.0 °F 80% 29.72 in 1.8 mi North 24.2 mph 39.1 mph 0.00 in Snow Light Snow
12:07 PM 28.4 °F 14.4 °F 23.0 °F 80% 29.71 in 1.8 mi NNW 23.0 mph 35.7 mph 0.00 in Snow Light Snow
12:15 PM 28.4 °F 15.8 °F 24.8 °F 86% 29.72 in 1.5 mi NNW 18.4 mph 31.1 mph 0.00 in Snow Light Snow
12:27 PM 28.4 °F 14.1 °F 23.0 °F 80% 29.72 in 4.0 mi NNW 24.2 mph 35.7 mph 0.00 in Snow Light Snow
12:39 PM 28.4 °F 14.1 °F 21.2 °F 74% 29.72 in 2.5 mi NNW 24.2 mph 36.8 mph 0.00 in Snow Light Snow
12:47 PM 28.4 °F 15.1 °F 21.2 °F 74% 29.73 in 5.0 mi NNW 20.7 mph 42.6 mph 0.00 in   Overcast
12:52 PM 28.9 °F 13.2 °F 19.9 °F 69% 29.83 in 7.0 mi NNW 31.1 mph 44.9 mph 0.00 in   Overcast
1:32 PM 28.4 °F 14.7 °F 19.4 °F 69% 29.75 in 10.0 mi NNW 21.9 mph 32.2 mph 0.00 in   Overcast
1:52 PM 28.9 °F 15.8 °F 19.0 °F 67% 29.84 in 10.0 mi NNW 20.7 mph 31.1 mph 0.00 in   Overcast
2:52 PM 30.0 °F 17.9 °F 19.9 °F 66% 29.87 in 10.0 mi NNW 18.4 mph 31.1 mph N/A   Overcast
3:32 PM 30.2 °F 17.1 °F 19.4 °F 64% 29.80 in 10.0 mi NNW 21.9 mph 33.4 mph N/A   Overcast
3:40 PM 30.2 °F 18.1 °F 19.4 °F 64% 29.80 in 10.0 mi NNW 18.4 mph 32.2 mph N/A   Overcast
3:52 PM 30.0 °F 17.9 °F 21.0 °F 69% 29.90 in 9.0 mi NNW 18.4 mph 29.9 mph 0.00 in Snow Light Snow
4:52 PM 27.0 °F 12.5 °F 18.0 °F 69% 29.92 in 10.0 mi North 23.0 mph 34.5 mph 0.00 in   Scattered Clouds
5:52 PM 27.0 °F 11.9 °F 16.0 °F 63% 29.97 in 10.0 mi North 25.3 mph 38.0 mph N/A   Overcast
6:52 PM 26.1 °F 12.0 °F 15.1 °F 63% 30.01 in 10.0 mi North 20.7 mph 32.2 mph N/A   Mostly Cloudy
7:52 PM 24.1 °F 10.1 °F 14.0 °F 65% 30.04 in 10.0 mi North 18.4 mph 31.1 mph N/A   Clear
8:52 PM 23.0 °F 11.7 °F 12.9 °F 65% 30.08 in 10.0 mi NNW 11.5 mph - N/A   Mostly Cloudy
9:52 PM 21.9 °F 11.7 °F 14.0 °F 72% 30.09 in 10.0 mi NNW 9.2 mph 19.6 mph N/A   Overcast
10:52 PM 19.9 °F 12.1 °F 12.9 °F 74% 30.10 in 10.0 mi NNW 5.8 mph - N/A   Mostly Cloudy
11:52 PM 15.1 °F - 10.9 °F 84% 30.14 in 10.0 mi Calm Calm - N/A   Partly Cloudy